Time,TemperatureF,DewpointF,PressureIn,WindDirection,WindDirectionDegrees,WindSpeedMPH,WindSpeedGustMPH,Humidity,HourlyPrecipIn,Conditions,Clouds,dailyrainin,SoftwareType,DateUTC
2013-01-01 00:00:00,71.4,59.9,30.15,SSE,158,0.0,0.0,67,0.00,,---,0.00,VWS V14.01,2013-01-01 05:00:00,
2013-01-01 00:01:00,72.1,60.2,30.03,ENE,68,2.5,3.1,66,0.00,,---,0.87,VWS V14.01,2013-01-01 05:01:00,
2013-01-01 00:02:00,71.4,59.9,30.15,SSE,158,0.0,0.0,67,0.00,,---,0.00,VWS V14.01,2013-01-01 05:02:00,
2013-01-01 00:07:00,71.4,59.5,30.15,SSE,158,0.0,0.0,66,0.00,,---,0.00,VWS V14.01,2013-01-01 05:07:00,
2013-01-01 00:12:00,71.2,58.9,30.15,SSE,158,0.0,0.0,65,0.00,,---,0.00,VWS V14.01,2013-01-01 05:12:00,
2013-01-01 00:17:00,71.2,58.5,30.15,SSE,158,0.0,0.0,64,0.00,,---,0.00,VWS V14.01,2013-01-01 05:17:00,
2013-01-01 00:22:00,71.1,57.8,30.15,SSE,158,0.0,0.0,63,0.00,,---,0.00,VWS V14.01,2013-01-01 05:22:00,
2013-01-01 00:27:00,71.1,57.8,30.15,SSE,158,0.0,0.0,63,0.00,,---,0.00,VWS V14.01,2013-01-01 05:27:00,
2013-01-01 00:32:00,70.9,57.7,30.15,SSE,158,0.0,0.0,63,0.00,,---,0.00,VWS V14.01,2013-01-01 05:32:00,
2013-01-01 00:37:00,70.7,57.5,30.15,SSE,158,0.0,0.0,63,0.00,,---,0.00,VWS V14.01,2013-01-01 05:37:00,
2013-01-01 00:42:00,70.7,57.5,30.15,SSE,158,0.0,0.0,63,0.00,,---,98.06,VWS V14.01,2013-01-01 05:42:00,
2013-01-01 00:47:00,70.5,57.3,30.15,SSE,158,0.0,0.0,63,0.00,,---,98.06,VWS V14.01,2013-01-01 05:47:00,
2013-01-01 00:52:00,70.5,57.8,30.15,SSE,158,0.0,0.0,64,0.00,,---,98.06,VWS V14.01,2013-01-01 05:52:00,
2013-01-01 00:57:00,70.5,57.8,30.15,SSE,158,0.0,0.0,64,0.00,,---,98.06,VWS V14.01,2013-01-01 05:57:00,
2013-01-01 01:02:00,70.3,57.6,30.15,SSE,158,0.0,0.0,64,0.00,,---,98.06,VWS V14.01,2013-01-01 06:02:00,
2013-01-01 01:07:00,70.2,57.4,30.15,SSE,158,0.0,0.0,64,0.00,,---,98.06,VWS V14.01,2013-01-01 06:07:00,
2013-01-01 01:12:00,70.0,57.3,30.15,SSE,158,0.0,0.0,64,0.00,,---,98.06,VWS V14.01,2013-01-01 06:12:00,
2013-01-01 01:17:00,69.8,57.1,30.15,SSE,158,0.0,0.0,64,0.00,,---,98.06,VWS V14.01,2013-01-01 06:17:00,
2013-01-01 01:22:00,69.6,57.3,30.12,SSE,158,0.0,0.0,65,0.00,,---,98.06,VWS V14.01,2013-01-01 06:22:00,
2013-01-01 01:27:00,69.8,57.5,30.12,SSE,158,0.0,0.0,65,0.00,,---,98.06,VWS V14.01,2013-01-01 06:27:00,
2013-01-01 01:32:00,70.0,57.7,30.12,SSE,158,0.0,0.0,65,0.00,,---,98.06,VWS V14.01,2013-01-01 06:32:00,
2013-01-01 01:37:00,70.3,58.9,30.12,SSE,158,0.0,0.0,67,0.00,,---,98.06,VWS V14.01,2013-01-01 06:37:00,
2013-01-01 01:42:00,70.5,59.0,30.12,SSE,158,0.0,0.0,67,0.00,,---,98.06,VWS V14.01,2013-01-01 06:42:00,
2013-01-01 01:47:00,70.7,58.8,30.12,SSE,158,0.0,0.0,66,0.00,,---,98.06,VWS V14.01,2013-01-01 06:47:00,
2013-01-01 01:52:00,70.7,58.8,30.12,SSE,158,0.0,0.0,66,0.00,,---,98.06,VWS V14.01,2013-01-01 06:52:00,
2013-01-01 01:57:00,70.7,57.9,30.12,SSE,158,0.0,0.0,64,0.00,,---,98.06,VWS V14.01,2013-01-01 06:57:00,
2013-01-01 02:02:00,70.7,57.5,30.12,SSE,158,0.0,0.0,63,0.00,,---,98.06,VWS V14.01,2013-01-01 07:02:00,
2013-01-01 02:07:00,70.5,56.9,30.12,SSE,158,0.0,0.0,62,0.00,,---,98.06,VWS V14.01,2013-01-01 07:07:00,
2013-01-01 02:12:00,70.3,56.7,30.12,SSE,158,0.0,0.0,62,0.00,,---,98.06,VWS V14.01,2013-01-01 07:12:00,
2013-01-01 02:17:00,70.2,56.1,30.12,SSE,158,0.0,0.0,61,0.00,,---,98.06,VWS V14.01,2013-01-01 07:17:00,
2013-01-01 02:22:00,70.2,56.5,30.15,SSE,158,0.0,0.0,62,0.00,,---,98.06,VWS V14.01,2013-01-01 07:22:00,
2013-01-01 02:27:00,70.0,56.4,30.15,SSE,158,0.0,0.0,62,0.00,,---,98.06,VWS V14.01,2013-01-01 07:27:00,
2013-01-01 02:32:00,70.0,56.4,30.15,SSE,158,0.0,0.0,62,0.00,,---,98.06,VWS V14.01,2013-01-01 07:32:00,
2013-01-01 02:37:00,69.8,56.7,30.12,SSE,158,0.0,0.0,63,0.00,,---,98.06,VWS V14.01,2013-01-01 07:37:00,
2013-01-01 02:42:00,69.6,56.9,30.12,SSE,158,0.0,0.0,64,0.00,,---,98.06,VWS V14.01,2013-01-01 07:42:00,
2013-01-01 02:47:00,69.6,56.9,30.12,SSE,158,0.0,0.0,64,0.00,,---,98.06,VWS V14.01,2013-01-01 07:47:00,
2013-01-01 02:52:00,69.4,57.2,30.15,SSE,158,0.0,0.0,65,0.00,,---,98.06,VWS V14.01,2013-01-01 07:52:00,
2013-01-01 02:57:00,69.3,57.0,30.15,SSE,158,0.0,0.0,65,0.00,,---,98.06,VWS V14.01,2013-01-01 07:57:00,
2013-01-01 03:02:00,69.1,56.8,30.15,SSE,158,0.0,0.0,65,0.00,,---,98.06,VWS V14.01,2013-01-01 08:02:00,
2013-01-01 03:07:00,68.9,56.7,30.15,SSE,158,0.0,0.0,65,0.00,,---,98.06,VWS V14.01,2013-01-01 08:07:00,
2013-01-01 03:12:00,68.7,56.9,30.15,SSE,158,0.0,0.0,66,0.00,,---,98.06,VWS V14.01,2013-01-01 08:12:00,
2013-01-01 03:17:00,68.5,56.7,30.15,SSE,158,0.0,0.0,66,0.00,,---,98.06,VWS V14.01,2013-01-01 08:17:00,
2013-01-01 03:22:00,68.4,57.0,30.15,SSE,158,0.0,0.0,67,0.00,,---,98.06,VWS V14.01,2013-01-01 08:22:00,
2013-01-01 03:27:00,68.4,57.4,30.15,SSE,158,0.0,0.0,68,0.00,,---,98.06,VWS V14.01,2013-01-01 08:27:00,
2013-01-01 03:32:00,68.2,57.2,30.15,SSE,158,0.0,0.0,68,0.00,,---,98.06,VWS V14.01,2013-01-01 08:32:00,
2013-01-01 03:37:00,68.0,57.1,30.15,SSE,158,0.0,0.0,68,0.00,,---,98.06,VWS V14.01,2013-01-01 08:37:00,
2013-01-01 03:42:00,67.8,57.3,30.15,SSE,158,0.0,0.0,69,0.00,,---,98.06,VWS V14.01,2013-01-01 08:42:00,
2013-01-01 03:47:00,67.6,57.1,30.15,SSE,158,0.0,0.0,69,0.00,,---,98.06,VWS V14.01,2013-01-01 08:47:00,
2013-01-01 03:52:00,67.5,57.3,30.15,SSE,158,0.0,0.0,70,0.00,,---,98.06,VWS V14.01,2013-01-01 08:52:00,
2013-01-01 03:57:00,67.5,57.7,30.15,SSE,158,0.0,0.0,71,0.00,,---,98.06,VWS V14.01,2013-01-01 08:57:00,
2013-01-01 04:02:00,67.3,57.6,30.15,SSE,158,0.0,0.0,71,0.00,,---,98.06,VWS V14.01,2013-01-01 09:02:00,
2013-01-01 04:07:00,67.1,57.4,30.15,SSE,158,0.0,0.0,71,0.00,,---,98.06,VWS V14.01,2013-01-01 09:07:00,
2013-01-01 04:12:00,66.9,57.6,30.15,SSE,158,0.0,0.0,72,0.00,,---,98.06,VWS V14.01,2013-01-01 09:12:00,
2013-01-01 04:17:00,67.1,57.8,30.15,SSE,158,0.0,0.0,72,0.00,,---,98.06,VWS V14.01,2013-01-01 09:17:00,
2013-01-01 04:22:00,67.1,57.8,30.15,SSE,158,0.0,0.0,72,0.00,,---,98.06,VWS V14.01,2013-01-01 09:22:00,
2013-01-01 04:27:00,67.3,58.0,30.15,SSE,158,0.0,0.0,72,0.00,,---,98.06,VWS V14.01,2013-01-01 09:27:00,
2013-01-01 04:32:00,67.5,58.1,30.15,SSE,158,0.0,0.0,72,0.00,,---,98.06,VWS V14.01,2013-01-01 09:32:00,
2013-01-01 04:37:00,67.8,58.9,30.12,SSE,158,0.0,0.0,73,0.00,,---,98.06,VWS V14.01,2013-01-01 09:37:00,
2013-01-01 04:42:00,68.4,59.0,30.12,SSE,158,0.0,0.0,72,0.00,,---,98.06,VWS V14.01,2013-01-01 09:42:00,
2013-01-01 04:46:00,68.5,58.8,30.12,SSE,158,0.0,0.0,71,0.00,,---,98.06,VWS V14.01,2013-01-01 09:46:00,
2013-01-01 04:51:00,68.7,58.5,30.12,SSE,158,0.0,0.0,70,0.00,,---,98.06,VWS V14.01,2013-01-01 09:51:00,
2013-01-01 04:56:00,69.1,58.5,30.12,SSE,158,0.0,0.0,69,0.00,,---,98.06,VWS V14.01,2013-01-01 09:56:00,
2013-01-01 05:01:00,69.1,58.5,30.12,SSE,158,0.0,0.0,69,0.00,,---,98.06,VWS V14.01,2013-01-01 10:01:00,
2013-01-01 05:06:00,68.9,57.9,30.12,SSE,158,0.0,0.0,68,0.00,,---,98.06,VWS V14.01,2013-01-01 10:06:00,
2013-01-01 05:11:00,69.1,58.1,30.12,SSE,158,0.0,0.0,68,0.00,,---,98.06,VWS V14.01,2013-01-01 10:11:00,
2013-01-01 05:16:00,69.1,58.1,30.12,SSE,158,0.0,0.0,68,0.00,,---,98.06,VWS V14.01,2013-01-01 10:16:00,
2013-01-01 05:21:00,68.9,57.9,30.09,SSE,158,0.0,0.0,68,0.00,,---,98.06,VWS V14.01,2013-01-01 10:21:00,
2013-01-01 05:26:00,68.9,57.9,30.09,SSE,158,0.0,0.0,68,0.00,,---,98.06,VWS V14.01,2013-01-01 10:26:00,
2013-01-01 05:31:00,68.7,57.7,30.09,SSE,158,0.0,0.0,68,0.00,,---,98.06,VWS V14.01,2013-01-01 10:31:00,
2013-01-01 05:36:00,68.7,57.7,30.09,SSE,158,0.0,0.0,68,0.00,,---,98.06,VWS V14.01,2013-01-01 10:36:00,
2013-01-01 05:41:00,68.7,58.2,30.09,SSE,158,0.0,0.0,69,0.00,,---,98.06,VWS V14.01,2013-01-01 10:41:00,
2013-01-01 05:46:00,68.7,58.2,30.09,SSE,158,0.0,0.0,69,0.00,,---,98.06,VWS V14.01,2013-01-01 10:46:00,
2013-01-01 05:51:00,68.7,58.2,30.09,SSE,158,0.0,0.0,69,0.00,,---,98.06,VWS V14.01,2013-01-01 10:51:00,
2013-01-01 05:56:00,69.1,59.3,30.09,SSE,158,0.0,0.0,71,0.00,,---,98.06,VWS V14.01,2013-01-01 10:56:00,
2013-01-01 06:01:00,69.4,60.0,30.09,SSE,158,0.0,0.0,72,0.00,,---,98.06,VWS V14.01,2013-01-01 11:01:00,
2013-01-01 06:06:00,69.6,60.6,30.09,SSE,158,0.0,0.0,73,0.00,,---,98.06,VWS V14.01,2013-01-01 11:06:00,
2013-01-01 06:11:00,69.8,60.8,30.09,SSE,158,0.0,0.0,73,0.00,,---,98.06,VWS V14.01,2013-01-01 11:11:00,
2013-01-01 06:16:00,69.8,60.4,30.09,SSE,158,0.0,0.0,72,0.00,,---,98.06,VWS V14.01,2013-01-01 11:16:00,
2013-01-01 06:21:00,70.0,60.5,30.09,SSE,158,0.0,0.0,72,0.00,,---,98.06,VWS V14.01,2013-01-01 11:21:00,
2013-01-01 06:26:00,70.2,60.7,30.09,SSE,158,0.0,0.0,72,0.00,,---,98.06,VWS V14.01,2013-01-01 11:26:00,
2013-01-01 06:31:00,70.2,60.3,30.09,SSE,158,0.0,0.0,71,0.00,,---,98.06,VWS V14.01,2013-01-01 11:31:00,
2013-01-01 06:36:00,70.2,59.9,30.09,SSE,158,0.0,0.0,70,0.00,,---,98.06,VWS V14.01,2013-01-01 11:36:00,
2013-01-01 06:41:00,70.3,59.7,30.09,SSE,158,0.0,0.0,69,0.00,,---,98.06,VWS V14.01,2013-01-01 11:41:00,
2013-01-01 06:46:00,70.3,59.3,30.09,SSE,158,0.0,0.0,68,0.00,,---,98.06,VWS V14.01,2013-01-01 11:46:00,
2013-01-01 06:51:00,70.3,58.9,30.09,SSE,158,0.0,0.0,67,0.00,,---,98.06,VWS V14.01,2013-01-01 11:51:00,
2013-01-01 06:56:00,70.3,58.0,30.09,SSE,158,0.0,0.0,65,0.00,,---,98.06,VWS V14.01,2013-01-01 11:56:00,
2013-01-01 07:01:00,70.2,57.9,30.09,SSE,158,0.0,0.0,65,0.00,,---,98.06,VWS V14.01,2013-01-01 12:01:00,
2013-01-01 07:06:00,70.2,57.9,30.09,SSE,158,0.0,0.0,65,0.00,,---,98.06,VWS V14.01,2013-01-01 12:06:00,
2013-01-01 07:11:00,70.2,58.3,30.09,SSE,158,0.0,0.0,66,0.00,,---,98.06,VWS V14.01,2013-01-01 12:11:00,
2013-01-01 07:16:00,70.2,58.7,30.09,SSE,158,0.0,0.0,67,0.00,,---,98.06,VWS V14.01,2013-01-01 12:16:00,
2013-01-01 07:21:00,70.2,58.7,30.09,SSE,158,0.0,0.0,67,0.00,,---,98.06,VWS V14.01,2013-01-01 12:21:00,
2013-01-01 07:26:00,70.3,58.9,30.09,SSE,158,0.0,0.0,67,0.00,,---,98.06,VWS V14.01,2013-01-01 12:26:00,
2013-01-01 07:31:00,70.5,59.0,30.09,SSE,158,0.0,0.0,67,0.00,,---,98.06,VWS V14.01,2013-01-01 12:31:00,
2013-01-01 07:36:00,70.5,59.0,30.12,SSE,158,0.0,0.0,67,0.00,,---,98.06,VWS V14.01,2013-01-01 12:36:00,
2013-01-01 07:41:00,70.7,59.2,30.12,SSE,158,0.0,0.0,67,0.00,,---,98.06,VWS V14.01,2013-01-01 12:41:00,
2013-01-01 07:46:00,70.7,59.2,30.12,SSE,158,0.0,0.0,67,0.00,,---,98.06,VWS V14.01,2013-01-01 12:46:00,
2013-01-01 07:51:00,70.7,59.2,30.09,SSE,158,0.0,0.0,67,0.00,,---,98.06,VWS V14.01,2013-01-01 12:51:00,
2013-01-01 07:56:00,70.9,59.0,30.09,SSE,158,0.0,0.0,66,0.00,,---,98.06,VWS V14.01,2013-01-01 12:56:00,
2013-01-01 08:01:00,71.1,58.7,30.09,SSE,158,0.0,0.0,65,0.00,,---,98.06,VWS V14.01,2013-01-01 13:01:00,
2013-01-01 08:06:00,71.2,58.9,30.09,SSE,158,0.0,0.0,65,0.00,,---,98.06,VWS V14.01,2013-01-01 13:06:00,
2013-01-01 08:11:00,71.6,59.2,30.09,SSE,158,0.0,0.0,65,0.00,,---,98.06,VWS V14.01,2013-01-01 13:11:00,
2013-01-01 08:16:00,72.1,59.7,30.09,SSE,158,0.0,0.0,65,0.00,,---,98.06,VWS V14.01,2013-01-01 13:16:00,
2013-01-01 08:21:00,72.5,59.6,30.12,SSE,158,0.0,0.0,64,0.00,,---,98.06,VWS V14.01,2013-01-01 13:21:00,
2013-01-01 08:26:00,72.9,59.1,30.12,SSE,158,0.0,0.0,62,0.00,,---,98.06,VWS V14.01,2013-01-01 13:26:00,
2013-01-01 08:31:00,73.0,58.3,30.12,SSE,158,0.0,0.0,60,0.00,,---,98.06,VWS V14.01,2013-01-01 13:31:00,
2013-01-01 08:36:00,73.0,57.9,30.12,SSE,158,0.0,0.0,59,0.00,,---,98.06,VWS V14.01,2013-01-01 13:36:00,
2013-01-01 08:41:00,73.0,57.4,30.12,SSE,158,0.0,0.0,58,0.00,,---,98.06,VWS V14.01,2013-01-01 13:41:00,
2013-01-01 08:46:00,73.2,57.6,30.12,SSE,158,0.0,0.0,58,0.00,,---,98.06,VWS V14.01,2013-01-01 13:46:00,
2013-01-01 08:51:00,73.2,57.6,30.15,SSE,158,0.0,0.0,58,0.00,,---,98.06,VWS V14.01,2013-01-01 13:51:00,
2013-01-01 08:56:00,73.4,57.3,30.15,SSE,158,0.0,0.0,57,0.00,,---,98.06,VWS V14.01,2013-01-01 13:56:00,
2013-01-01 09:01:00,73.8,57.1,30.15,SSE,158,0.0,0.0,56,0.00,,---,98.06,VWS V14.01,2013-01-01 14:01:00,
2013-01-01 09:06:00,74.1,56.9,30.15,SSE,158,0.0,0.0,55,0.00,,---,98.06,VWS V14.01,2013-01-01 14:06:00,
2013-01-01 09:11:00,74.5,57.3,30.12,SSE,158,0.0,0.0,55,0.00,,---,98.06,VWS V14.01,2013-01-01 14:11:00,
2013-01-01 09:16:00,75.0,57.8,30.12,SSE,158,0.0,0.0,55,0.00,,---,0.00,VWS V14.01,2013-01-01 14:16:00,
2013-01-01 09:21:00,75.6,57.8,30.12,SSE,158,0.0,0.0,54,0.00,,---,98.06,VWS V14.01,2013-01-01 14:21:00,
2013-01-01 09:26:00,75.6,57.2,30.12,SSE,158,0.0,0.0,53,0.00,,---,98.06,VWS V14.01,2013-01-01 14:26:00,
2013-01-01 09:31:00,76.5,57.5,30.12,SSE,158,0.0,0.0,52,0.00,,---,98.06,VWS V14.01,2013-01-01 14:31:00,
2013-01-01 09:36:00,76.1,56.7,30.15,SSE,158,0.0,0.0,51,0.00,,---,0.00,VWS V14.01,2013-01-01 14:36:00,
2013-01-01 09:41:00,76.5,57.0,30.15,SSE,158,0.0,0.0,51,0.00,,---,98.06,VWS V14.01,2013-01-01 14:41:00,
2013-01-01 09:46:00,76.8,56.8,30.15,SSE,158,0.0,0.0,50,0.00,,---,98.06,VWS V14.01,2013-01-01 14:46:00,
2013-01-01 09:51:00,77.5,57.5,30.15,SSE,158,0.0,0.0,50,0.00,,---,98.06,VWS V14.01,2013-01-01 14:51:00,
2013-01-01 09:56:00,78.1,57.4,30.15,SSE,158,0.0,0.0,49,0.00,,---,98.06,VWS V14.01,2013-01-01 14:56:00,
2013-01-01 10:01:00,79.0,58.2,30.15,SSE,158,0.0,0.0,49,0.00,,---,98.06,VWS V14.01,2013-01-01 15:01:00,
2013-01-01 10:06:00,78.8,56.3,30.15,SSE,158,0.0,0.0,46,0.00,,---,98.06,VWS V14.01,2013-01-01 15:06:00,
2013-01-01 10:11:00,78.3,57.0,30.12,SSE,158,0.0,0.0,48,0.00,,---,98.06,VWS V14.01,2013-01-01 15:11:00,
2013-01-01 10:16:00,79.3,57.4,30.12,SSE,158,0.0,0.0,47,0.00,,---,98.06,VWS V14.01,2013-01-01 15:16:00,
2013-01-01 10:21:00,79.3,56.8,30.12,SSE,158,0.0,0.0,46,0.00,,---,98.06,VWS V14.01,2013-01-01 15:21:00,
2013-01-01 10:26:00,79.5,56.3,30.12,SSE,158,0.0,0.0,45,0.00,,---,98.06,VWS V14.01,2013-01-01 15:26:00,
2013-01-01 10:31:00,79.3,56.2,30.12,SSE,158,0.0,0.0,45,0.00,,---,98.06,VWS V14.01,2013-01-01 15:31:00,
2013-01-01 10:36:00,80.1,56.8,30.12,SSE,158,0.0,0.0,45,0.00,,---,98.06,VWS V14.01,2013-01-01 15:36:00,
2013-01-01 10:41:00,80.1,56.2,30.12,SSE,158,0.0,0.0,44,0.00,,---,98.06,VWS V14.01,2013-01-01 15:41:00,
2013-01-01 10:46:00,80.2,57.0,30.12,SSE,158,0.0,0.0,45,0.00,,---,98.06,VWS V14.01,2013-01-01 15:46:00,
2013-01-01 10:51:00,80.8,57.5,30.12,SSE,158,0.0,0.0,45,0.00,,---,98.06,VWS V14.01,2013-01-01 15:51:00,
2013-01-01 10:56:00,80.4,57.2,30.12,SSE,158,0.0,0.0,45,0.00,,---,98.06,VWS V14.01,2013-01-01 15:56:00,
2013-01-01 11:01:00,81.0,57.0,30.12,SSE,158,0.0,0.0,44,0.00,,---,98.06,VWS V14.01,2013-01-01 16:01:00,
2013-01-01 11:06:00,80.4,56.5,30.09,SSE,158,0.0,0.0,44,0.00,,---,98.06,VWS V14.01,2013-01-01 16:06:00,
2013-01-01 11:11:00,80.1,56.8,30.09,SSE,158,0.0,0.0,45,0.00,,---,98.06,VWS V14.01,2013-01-01 16:11:00,
2013-01-01 11:16:00,79.2,56.6,30.09,SSE,158,0.0,0.0,46,0.00,,---,98.06,VWS V14.01,2013-01-01 16:16:00,
2013-01-01 11:21:00,80.6,57.3,30.12,SSE,158,0.0,0.0,45,0.00,,---,98.06,VWS V14.01,2013-01-01 16:21:00,
2013-01-01 11:26:00,80.2,57.0,30.12,SSE,158,0.0,0.0,45,0.00,,---,98.06,VWS V14.01,2013-01-01 16:26:00,
2013-01-01 11:31:00,79.9,57.3,30.12,SSE,158,0.0,0.0,46,0.00,,---,98.06,VWS V14.01,2013-01-01 16:31:00,
2013-01-01 11:36:00,79.5,57.0,30.09,SSE,158,0.0,0.0,46,0.00,,---,98.06,VWS V14.01,2013-01-01 16:36:00,
2013-01-01 11:41:00,79.0,57.6,30.09,SSE,158,0.0,0.0,48,0.00,,---,98.06,VWS V14.01,2013-01-01 16:41:00,
2013-01-01 11:46:00,79.3,56.8,30.09,SSE,158,0.0,0.0,46,0.00,,---,98.06,VWS V14.01,2013-01-01 16:46:00,
2013-01-01 11:51:00,80.2,57.6,30.09,SSE,158,0.0,0.0,46,0.00,,---,98.06,VWS V14.01,2013-01-01 16:51:00,
2013-01-01 11:56:00,80.2,57.6,30.09,SSE,158,0.0,0.0,46,0.00,,---,98.06,VWS V14.01,2013-01-01 16:56:00,
2013-01-01 12:01:00,79.5,57.0,30.09,SSE,158,0.0,0.0,46,0.00,,---,98.06,VWS V14.01,2013-01-01 17:01:00,
2013-01-01 12:06:00,79.0,56.5,30.09,SSE,158,0.0,0.0,46,0.00,,---,98.06,VWS V14.01,2013-01-01 17:06:00,
2013-01-01 12:07:00,0.0,0.0,29.94,SW,225,2.9,3.6,0,0.34,,SKC,27.89,VWS V14.01,2013-01-01 17:07:00,
2013-01-01 12:11:00,79.7,57.1,30.09,SSE,158,0.0,0.0,46,0.00,,---,98.06,VWS V14.01,2013-01-01 17:11:00,
2013-01-01 12:16:00,79.9,56.7,30.09,SSE,158,0.0,0.0,45,0.00,,---,98.06,VWS V14.01,2013-01-01 17:16:00,
2013-01-01 12:21:00,80.8,56.9,30.06,SSE,158,0.0,0.0,44,0.00,,---,98.06,VWS V14.01,2013-01-01 17:21:00,
2013-01-01 12:26:00,80.6,57.3,30.06,SSE,158,0.0,0.0,45,0.00,,---,98.06,VWS V14.01,2013-01-01 17:26:00,
2013-01-01 12:31:00,80.1,56.8,30.06,SSE,158,0.0,0.0,45,0.00,,---,98.06,VWS V14.01,2013-01-01 17:31:00,
2013-01-01 12:36:00,79.7,57.7,30.06,SSE,158,0.0,0.0,47,0.00,,---,98.06,VWS V14.01,2013-01-01 17:36:00,
2013-01-01 12:41:00,79.2,56.6,30.06,SSE,158,0.0,0.0,46,0.00,,---,98.06,VWS V14.01,2013-01-01 17:41:00,
2013-01-01 12:46:00,80.1,58.0,30.06,SSE,158,0.0,0.0,47,0.00,,---,98.06,VWS V14.01,2013-01-01 17:46:00,
2013-01-01 12:51:00,80.4,57.8,30.06,SSE,158,0.0,0.0,46,0.00,,---,98.06,VWS V14.01,2013-01-01 17:51:00,
2013-01-01 12:56:00,80.6,57.9,30.06,SSE,158,0.0,0.0,46,0.00,,---,98.06,VWS V14.01,2013-01-01 17:56:00,
2013-01-01 13:01:00,80.6,57.9,30.06,SSE,158,0.0,0.0,46,0.00,,---,98.06,VWS V14.01,2013-01-01 18:01:00,
2013-01-01 13:06:00,80.1,57.4,30.06,SSE,158,0.0,0.0,46,0.00,,---,98.06,VWS V14.01,2013-01-01 18:06:00,
2013-01-01 13:11:00,79.0,57.0,30.06,SSE,158,0.0,0.0,47,0.00,,---,98.06,VWS V14.01,2013-01-01 18:11:00,
2013-01-01 13:16:00,79.0,57.0,30.06,SSE,158,0.0,0.0,47,0.00,,---,98.06,VWS V14.01,2013-01-01 18:16:00,
2013-01-01 13:21:00,79.5,57.5,30.06,SSE,158,0.0,0.0,47,0.00,,---,98.06,VWS V14.01,2013-01-01 18:21:00,
2013-01-01 13:26:00,79.3,56.8,30.06,SSE,158,0.0,0.0,46,0.00,,---,98.06,VWS V14.01,2013-01-01 18:26:00,
2013-01-01 13:31:00,78.8,56.9,30.06,SSE,158,0.0,0.0,47,0.00,,---,98.06,VWS V14.01,2013-01-01 18:31:00,
2013-01-01 13:36:00,79.2,57.2,30.06,SSE,158,0.0,0.0,47,0.00,,---,98.06,VWS V14.01,2013-01-01 18:36:00,
2013-01-01 13:41:00,78.8,56.9,30.06,SSE,158,0.0,0.0,47,0.00,,---,98.06,VWS V14.01,2013-01-01 18:41:00,
2013-01-01 13:46:00,78.8,57.5,30.06,SSE,158,0.0,0.0,48,0.00,,---,98.06,VWS V14.01,2013-01-01 18:46:00,
2013-01-01 13:51:00,78.8,57.5,30.06,SSE,158,0.0,0.0,48,0.00,,---,98.06,VWS V14.01,2013-01-01 18:51:00,
2013-01-01 13:56:00,78.8,56.9,30.03,SSE,158,0.0,0.0,47,0.00,,---,98.06,VWS V14.01,2013-01-01 18:56:00,
2013-01-01 14:01:00,78.4,57.1,30.03,SSE,158,0.0,0.0,48,0.00,,---,98.06,VWS V14.01,2013-01-01 19:01:00,
2013-01-01 14:06:00,79.2,57.8,30.03,SSE,158,0.0,0.0,48,0.00,,---,98.06,VWS V14.01,2013-01-01 19:06:00,
2013-01-01 14:11:00,78.6,57.3,30.03,SSE,158,0.0,0.0,48,0.00,,---,98.06,VWS V14.01,2013-01-01 19:11:00,
2013-01-01 14:16:00,78.4,57.7,30.03,SSE,158,0.0,0.0,49,0.00,,---,98.06,VWS V14.01,2013-01-01 19:16:00,
2013-01-01 14:21:00,78.8,58.0,30.00,SSE,158,0.0,0.0,49,0.00,,---,98.06,VWS V14.01,2013-01-01 19:21:00,
2013-01-01 14:26:00,79.3,58.0,30.00,SSE,158,0.0,0.0,48,0.00,,---,98.06,VWS V14.01,2013-01-01 19:26:00,
2013-01-01 14:31:00,78.8,57.5,30.00,SSE,158,0.0,0.0,48,0.00,,---,98.06,VWS V14.01,2013-01-01 19:31:00,
2013-01-01 14:36:00,79.2,57.8,30.00,SSE,158,0.0,0.0,48,0.00,,---,98.06,VWS V14.01,2013-01-01 19:36:00,
2013-01-01 14:41:00,78.4,56.6,30.00,SSE,158,0.0,0.0,47,0.00,,---,98.06,VWS V14.01,2013-01-01 19:41:00,
2013-01-01 14:46:00,78.1,57.4,30.00,SSE,158,0.0,0.0,49,0.00,,---,98.06,VWS V14.01,2013-01-01 19:46:00,
2013-01-01 14:51:00,78.1,58.0,30.03,SSE,158,0.0,0.0,50,0.00,,---,98.06,VWS V14.01,2013-01-01 19:51:00,
2013-01-01 14:56:00,78.3,58.7,30.03,SSE,158,0.0,0.0,51,0.00,,---,98.06,VWS V14.01,2013-01-01 19:56:00,
2013-01-01 15:01:00,78.8,58.6,30.03,SSE,158,0.0,0.0,50,0.00,,---,98.06,VWS V14.01,2013-01-01 20:01:00,
2013-01-01 15:06:00,78.4,57.7,30.00,SSE,158,0.0,0.0,49,0.00,,---,98.06,VWS V14.01,2013-01-01 20:06:00,
2013-01-01 15:11:00,78.4,57.7,30.00,SSE,158,0.0,0.0,49,0.00,,---,98.06,VWS V14.01,2013-01-01 20:11:00,
2013-01-01 15:16:00,78.3,57.0,30.00,SSE,158,0.0,0.0,48,0.00,,---,98.06,VWS V14.01,2013-01-01 20:16:00,
2013-01-01 15:21:00,78.1,57.4,30.03,SSE,158,0.0,0.0,49,0.00,,---,98.06,VWS V14.01,2013-01-01 20:21:00,
2013-01-01 15:26:00,77.9,57.2,30.03,SSE,158,0.0,0.0,49,0.00,,---,98.06,VWS V14.01,2013-01-01 20:26:00,
2013-01-01 15:31:00,78.4,57.1,30.03,SSE,158,0.0,0.0,48,0.00,,---,98.06,VWS V14.01,2013-01-01 20:31:00,
2013-01-01 15:36:00,78.4,57.1,30.03,SSE,158,0.0,0.0,48,0.00,,---,98.06,VWS V14.01,2013-01-01 20:36:00,
2013-01-01 15:41:00,78.3,57.0,30.03,SSE,158,0.0,0.0,48,0.00,,---,98.06,VWS V14.01,2013-01-01 20:41:00,
2013-01-01 15:46:00,78.8,58.0,30.03,SSE,158,0.0,0.0,49,0.00,,---,98.06,VWS V14.01,2013-01-01 20:46:00,
2013-01-01 15:51:00,78.3,57.0,30.03,SSE,158,0.0,0.0,48,0.00,,---,98.06,VWS V14.01,2013-01-01 20:51:00,
2013-01-01 15:56:00,78.1,57.4,30.03,SSE,158,0.0,0.0,49,0.00,,---,98.06,VWS V14.01,2013-01-01 20:56:00,
2013-01-01 16:01:00,77.9,56.7,30.03,SSE,158,0.0,0.0,48,0.00,,---,98.06,VWS V14.01,2013-01-01 21:01:00,
2013-01-01 16:06:00,77.7,57.1,30.03,SSE,158,0.0,0.0,49,0.00,,---,98.06,VWS V14.01,2013-01-01 21:06:00,
2013-01-01 16:11:00,77.4,58.4,30.00,SSE,158,0.0,0.0,52,0.00,,---,98.06,VWS V14.01,2013-01-01 21:11:00,
2013-01-01 16:16:00,77.4,58.9,30.00,SSE,158,0.0,0.0,53,0.00,,---,98.06,VWS V14.01,2013-01-01 21:16:00,
2013-01-01 16:21:00,77.2,57.1,30.00,SSE,158,0.0,0.0,50,0.00,,---,98.06,VWS V14.01,2013-01-01 21:21:00,
2013-01-01 16:26:00,77.2,57.1,30.03,SSE,158,0.0,0.0,50,0.00,,---,98.06,VWS V14.01,2013-01-01 21:26:00,
2013-01-01 16:31:00,77.0,58.0,30.03,SSE,158,0.0,0.0,52,0.00,,---,98.06,VWS V14.01,2013-01-01 21:31:00,
2013-01-01 16:36:00,76.8,58.4,30.03,SSE,158,0.0,0.0,53,0.00,,---,98.06,VWS V14.01,2013-01-01 21:36:00,
2013-01-01 16:41:00,76.6,58.2,30.06,SSE,158,0.0,0.0,53,0.00,,---,98.06,VWS V14.01,2013-01-01 21:41:00,
2013-01-01 16:46:00,76.1,57.8,30.06,SSE,158,0.0,0.0,53,0.00,,---,98.06,VWS V14.01,2013-01-01 21:46:00,
2013-01-01 16:51:00,75.9,57.6,30.06,SSE,158,0.0,0.0,53,0.00,,---,98.06,VWS V14.01,2013-01-01 21:51:00,
2013-01-01 16:56:00,75.9,58.1,30.03,SSE,158,0.0,0.0,54,0.00,,---,98.06,VWS V14.01,2013-01-01 21:56:00,
2013-01-01 17:01:00,75.7,58.4,30.03,SSE,158,0.0,0.0,55,0.00,,---,98.06,VWS V14.01,2013-01-01 22:01:00,
2013-01-01 17:06:00,75.6,57.8,30.03,SSE,158,0.0,0.0,54,0.00,,---,98.06,VWS V14.01,2013-01-01 22:06:00,
2013-01-01 17:11:00,75.4,57.6,30.03,SSE,158,0.0,0.0,54,0.00,,---,98.06,VWS V14.01,2013-01-01 22:11:00,
2013-01-01 17:16:00,75.4,58.1,30.03,SSE,158,0.0,0.0,55,0.00,,---,98.06,VWS V14.01,2013-01-01 22:16:00,
2013-01-01 17:21:00,75.2,58.9,30.03,SSE,158,0.0,0.0,57,0.00,,---,98.06,VWS V14.01,2013-01-01 22:21:00,
2013-01-01 17:26:00,75.0,58.8,30.03,SSE,158,0.0,0.0,57,0.00,,---,98.06,VWS V14.01,2013-01-01 22:26:00,
2013-01-01 17:31:00,75.0,58.8,30.03,SSE,158,0.0,0.0,57,0.00,,---,98.06,VWS V14.01,2013-01-01 22:31:00,
2013-01-01 17:36:00,74.8,58.6,30.03,SSE,158,0.0,0.0,57,0.00,,---,98.06,VWS V14.01,2013-01-01 22:36:00,
2013-01-01 17:41:00,74.8,59.1,30.03,SSE,158,0.0,0.0,58,0.00,,---,98.06,VWS V14.01,2013-01-01 22:41:00,
2013-01-01 17:46:00,74.8,59.6,30.03,SSE,158,0.0,0.0,59,0.00,,---,98.06,VWS V14.01,2013-01-01 22:46:00,
2013-01-01 17:51:00,74.7,59.9,30.03,SSE,158,0.0,0.0,60,0.00,,---,98.06,VWS V14.01,2013-01-01 22:51:00,
2013-01-01 17:56:00,74.7,59.9,30.06,SSE,158,0.0,0.0,60,0.00,,---,98.06,VWS V14.01,2013-01-01 22:56:00,
2013-01-01 18:01:00,74.5,59.7,30.06,SSE,158,0.0,0.0,60,0.00,,---,98.06,VWS V14.01,2013-01-01 23:01:00,
2013-01-01 18:06:00,74.5,60.2,30.06,SSE,158,0.0,0.0,61,0.00,,---,98.06,VWS V14.01,2013-01-01 23:06:00,
2013-01-01 18:11:00,74.5,59.7,30.03,SSE,158,0.0,0.0,60,0.00,,---,98.06,VWS V14.01,2013-01-01 23:11:00,
2013-01-01 18:16:00,74.5,59.7,30.03,SSE,158,0.0,0.0,60,0.00,,---,98.06,VWS V14.01,2013-01-01 23:16:00,
2013-01-01 18:21:00,74.5,59.7,30.03,SSE,158,0.0,0.0,60,0.00,,---,98.06,VWS V14.01,2013-01-01 23:21:00,
2013-01-01 18:26:00,74.5,59.7,30.03,SSE,158,0.0,0.0,60,0.00,,---,98.06,VWS V14.01,2013-01-01 23:26:00,
2013-01-01 18:31:00,74.5,60.2,30.03,SSE,158,0.0,0.0,61,0.00,,---,98.06,VWS V14.01,2013-01-01 23:31:00,
2013-01-01 18:35:00,74.3,60.0,30.03,SSE,158,0.0,0.0,61,0.00,,---,98.06,VWS V14.01,2013-01-01 23:35:00,
2013-01-01 18:40:00,74.3,60.0,30.03,SSE,158,0.0,0.0,61,0.00,,---,98.06,VWS V14.01,2013-01-01 23:40:00,
2013-01-01 18:45:00,74.3,60.0,30.03,SSE,158,0.0,0.0,61,0.00,,---,98.06,VWS V14.01,2013-01-01 23:45:00,
2013-01-01 18:50:00,74.3,60.0,30.03,SSE,158,0.0,0.0,61,0.00,,---,98.06,VWS V14.01,2013-01-01 23:50:00,
2013-01-01 18:55:00,74.3,60.0,30.03,SSE,158,0.0,0.0,61,0.00,,---,98.06,VWS V14.01,2013-01-01 23:55:00,
2013-01-01 19:00:00,74.1,59.4,30.03,SSE,158,0.0,0.0,60,0.00,,---,98.06,VWS V14.01,2013-01-02 00:00:00,
2013-01-01 19:05:00,74.1,58.4,30.03,SSE,158,0.0,0.0,58,0.00,,---,98.06,VWS V14.01,2013-01-02 00:05:00,
2013-01-01 19:10:00,74.1,57.9,30.03,SSE,158,0.0,0.0,57,0.00,,---,98.06,VWS V14.01,2013-01-02 00:10:00,
2013-01-01 19:15:00,74.1,58.4,30.03,SSE,158,0.0,0.0,58,0.00,,---,98.06,VWS V14.01,2013-01-02 00:15:00,
2013-01-01 19:20:00,74.1,58.4,30.03,SSE,158,0.0,0.0,58,0.00,,---,98.06,VWS V14.01,2013-01-02 00:20:00,
2013-01-01 19:25:00,74.1,58.4,30.03,SSE,158,0.0,0.0,58,0.00,,---,98.06,VWS V14.01,2013-01-02 00:25:00,
2013-01-01 19:30:00,74.1,58.9,30.03,SSE,158,0.0,0.0,59,0.00,,---,98.06,VWS V14.01,2013-01-02 00:30:00,
2013-01-01 19:35:00,73.9,58.7,30.03,SSE,158,0.0,0.0,59,0.00,,---,98.06,VWS V14.01,2013-01-02 00:35:00,
2013-01-01 19:40:00,73.9,58.7,30.00,SSE,158,0.0,0.0,59,0.00,,---,98.06,VWS V14.01,2013-01-02 00:40:00,
2013-01-01 19:45:00,73.9,58.7,30.00,SSE,158,0.0,0.0,59,0.00,,---,98.06,VWS V14.01,2013-01-02 00:45:00,
2013-01-01 19:50:00,73.9,58.7,30.00,SSE,158,0.0,0.0,59,0.00,,---,98.06,VWS V14.01,2013-01-02 00:50:00,
2013-01-01 19:55:00,73.9,58.7,30.03,SSE,158,0.0,0.0,59,0.00,,---,98.06,VWS V14.01,2013-01-02 00:55:00,
2013-01-01 20:00:00,73.6,58.8,30.03,SSE,158,0.0,0.0,60,0.00,,---,98.06,VWS V14.01,2013-01-02 01:00:00,
2013-01-01 20:05:00,73.6,58.8,30.03,SSE,158,0.0,0.0,60,0.00,,---,98.06,VWS V14.01,2013-01-02 01:05:00,
2013-01-01 20:10:00,73.6,58.8,30.03,SSE,158,0.0,0.0,60,0.00,,---,98.06,VWS V14.01,2013-01-02 01:10:00,
2013-01-01 20:15:00,73.4,59.2,30.03,SSE,158,0.0,0.0,61,0.00,,---,98.06,VWS V14.01,2013-01-02 01:15:00,
2013-01-01 20:20:00,73.4,59.2,30.03,SSE,158,0.0,0.0,61,0.00,,---,98.06,VWS V14.01,2013-01-02 01:20:00,
2013-01-01 20:25:00,73.2,59.9,30.00,SSE,158,0.0,0.0,63,0.00,,---,98.06,VWS V14.01,2013-01-02 01:25:00,
2013-01-01 20:30:00,73.0,59.7,30.00,SSE,158,0.0,0.0,63,0.00,,---,98.06,VWS V14.01,2013-01-02 01:30:00,
2013-01-01 20:35:00,72.9,60.0,30.00,SSE,158,0.0,0.0,64,0.00,,---,98.06,VWS V14.01,2013-01-02 01:35:00,
2013-01-01 20:40:00,72.7,60.2,30.03,SSE,158,0.0,0.0,65,0.00,,---,98.06,VWS V14.01,2013-01-02 01:40:00,
2013-01-01 20:45:00,72.3,60.3,30.03,SSE,158,0.0,0.0,66,0.00,,---,98.06,VWS V14.01,2013-01-02 01:45:00,
2013-01-01 20:50:00,72.1,60.2,30.03,SSE,158,0.0,0.0,66,0.00,,---,98.06,VWS V14.01,2013-01-02 01:50:00,
2013-01-01 20:55:00,71.8,59.8,30.03,SSE,158,0.0,0.0,66,0.00,,---,98.06,VWS V14.01,2013-01-02 01:55:00,
2013-01-01 21:00:00,71.6,60.5,30.03,SSE,158,0.0,0.0,68,0.00,,---,98.06,VWS V14.01,2013-01-02 02:00:00,
2013-01-01 21:05:00,71.2,61.0,30.03,SSE,158,0.0,0.0,70,0.00,,---,98.06,VWS V14.01,2013-01-02 02:05:00,
2013-01-01 21:10:00,71.1,60.8,30.03,SSE,158,0.0,0.0,70,0.00,,---,98.06,VWS V14.01,2013-01-02 02:10:00,
2013-01-01 21:15:00,70.7,60.8,30.03,SSE,158,0.0,0.0,71,0.00,,---,98.06,VWS V14.01,2013-01-02 02:15:00,
2013-01-01 21:20:00,70.5,60.7,30.03,SSE,158,0.0,0.0,71,0.00,,---,98.06,VWS V14.01,2013-01-02 02:20:00,
2013-01-01 21:25:00,70.3,60.5,30.03,SSE,158,0.0,0.0,71,0.00,,---,98.06,VWS V14.01,2013-01-02 02:25:00,
2013-01-01 21:30:00,70.2,60.7,30.03,SSE,158,0.0,0.0,72,0.00,,---,98.06,VWS V14.01,2013-01-02 02:30:00,
2013-01-01 21:35:00,70.0,60.9,30.03,SSE,158,0.0,0.0,73,0.00,,---,98.06,VWS V14.01,2013-01-02 02:35:00,
2013-01-01 21:40:00,69.6,61.0,30.03,SSE,158,0.0,0.0,74,0.00,,---,98.06,VWS V14.01,2013-01-02 02:40:00,
2013-01-01 21:45:00,69.4,61.2,30.03,SSE,158,0.0,0.0,75,0.00,,---,98.06,VWS V14.01,2013-01-02 02:45:00,
2013-01-01 21:50:00,69.3,61.0,30.03,SSE,158,0.0,0.0,75,0.00,,---,98.06,VWS V14.01,2013-01-02 02:50:00,
2013-01-01 21:55:00,69.3,61.0,30.03,SSE,158,0.0,0.0,75,0.00,,---,98.06,VWS V14.01,2013-01-02 02:55:00,
2013-01-01 22:00:00,69.1,61.2,30.03,SSE,158,0.0,0.0,76,0.00,,---,98.06,VWS V14.01,2013-01-02 03:00:00,
2013-01-01 22:05:00,69.3,61.4,30.03,SSE,158,0.0,0.0,76,0.00,,---,98.06,VWS V14.01,2013-01-02 03:05:00,
2013-01-01 22:10:00,69.3,61.4,30.03,SSE,158,0.0,0.0,76,0.00,,---,98.06,VWS V14.01,2013-01-02 03:10:00,
2013-01-01 22:15:00,69.3,61.8,30.03,SSE,158,0.0,0.0,77,0.00,,---,98.06,VWS V14.01,2013-01-02 03:15:00,
2013-01-01 22:20:00,69.3,61.8,30.03,SSE,158,0.0,0.0,77,0.00,,---,98.06,VWS V14.01,2013-01-02 03:20:00,
2013-01-01 22:25:00,69.1,61.6,30.03,SSE,158,0.0,0.0,77,0.00,,---,98.06,VWS V14.01,2013-01-02 03:25:00,
2013-01-01 22:30:00,69.1,61.6,30.03,SSE,158,0.0,0.0,77,0.00,,---,98.06,VWS V14.01,2013-01-02 03:30:00,
2013-01-01 22:35:00,68.9,61.4,30.03,SSE,158,0.0,0.0,77,0.00,,---,98.06,VWS V14.01,2013-01-02 03:35:00,
2013-01-01 22:40:00,68.7,61.2,30.03,SSE,158,0.0,0.0,77,0.00,,---,98.06,VWS V14.01,2013-01-02 03:40:00,
2013-01-01 22:45:00,68.9,61.4,30.03,SSE,158,0.0,0.0,77,0.00,,---,98.06,VWS V14.01,2013-01-02 03:45:00,
2013-01-01 22:50:00,68.7,60.9,30.03,SSE,158,0.0,0.0,76,0.00,,---,98.06,VWS V14.01,2013-01-02 03:50:00,
2013-01-01 22:55:00,68.7,60.9,30.03,SSE,158,0.0,0.0,76,0.00,,---,98.06,VWS V14.01,2013-01-02 03:55:00,
2013-01-01 23:00:00,68.7,60.9,30.03,SSE,158,0.0,0.0,76,0.00,,---,0.00,VWS V14.01,2013-01-02 04:00:00,
2013-01-01 23:05:00,68.7,60.9,30.03,SSE,158,0.0,0.0,76,0.00,,---,0.00,VWS V14.01,2013-01-02 04:05:00,
2013-01-01 23:10:00,68.7,60.9,30.03,SSE,158,0.0,0.0,76,0.00,,---,0.00,VWS V14.01,2013-01-02 04:10:00,
2013-01-01 23:15:00,68.7,60.9,30.03,SSE,158,0.0,0.0,76,0.00,,---,0.00,VWS V14.01,2013-01-02 04:15:00,
2013-01-01 23:20:00,68.9,61.0,30.03,SSE,158,0.0,0.0,76,0.00,,---,0.00,VWS V14.01,2013-01-02 04:20:00,
2013-01-01 23:25:00,68.7,60.5,30.03,SSE,158,0.0,0.0,75,0.00,,---,0.00,VWS V14.01,2013-01-02 04:25:00,
2013-01-01 23:30:00,68.5,60.3,30.03,SSE,158,0.0,0.0,75,0.00,,---,0.00,VWS V14.01,2013-01-02 04:30:00,
2013-01-01 23:35:00,68.4,60.5,30.03,SSE,158,0.0,0.0,76,0.00,,---,0.00,VWS V14.01,2013-01-02 04:35:00,
2013-01-01 23:40:00,68.4,60.9,30.03,SSE,158,0.0,0.0,77,0.00,,---,0.00,VWS V14.01,2013-01-02 04:40:00,
2013-01-01 23:45:00,68.0,60.2,30.03,SSE,158,0.0,0.0,76,0.00,,---,0.00,VWS V14.01,2013-01-02 04:45:00,
2013-01-01 23:50:00,68.0,60.2,30.03,SSE,158,0.0,0.0,76,0.00,,---,0.00,VWS V14.01,2013-01-02 04:50:00,
2013-01-01 23:55:00,67.8,60.3,30.03,SSE,158,0.0,0.0,77,0.00,,---,0.00,VWS V14.01,2013-01-02 04:55:00,